Location: Round Knob
(37.2473°N, 88.7376°W)
Time: 21:28:54
(UTC+00:00)

N. Korean satellite - Pass Details

Date: 29 September 2021
Orbit: 450 x 495 km, 97.3° (Epoch: 21 October)

Event Time Altitude Azimuth Distance (km) Brightness Sun altitude
Rises 11:05:01 0° 12° (NNE) 2,544 10.4 -9.6°
Reaches altitude 10° 11:07:05 10° 14° (NNE) 1,668 9.5 -9.2°
Maximum altitude 11:10:41 79° 102° (ESE) 501 6.7 -8.4°
Drops below altitude 10° 11:14:17 10° 189° (S) 1,676 9.2 -7.7°
Sets 11:16:21 0° 190° (S) 2,557 10.1 -7.3°
